Location: Johnson City
(36.3130°N, 82.3540°W)
Time: 11:30:30
(UTC-05:00)

Hubble Space Telescope - Pass Details

Date: 02 December 2021
Orbit: 534 x 538 km, 28.5° (Epoch: 19 January)

Event Time Altitude Azimuth Distance (km) Brightness Sun altitude
Exits shadow 06:49:09 - 251° (WSW) 2,512 3.7 -7.1°
Reaches altitude 10° 06:52:38 10° 216° (SW) 1,771 3.3 -6.5°
Maximum altitude 06:53:38 11° 201° (SSW) 1,723 3.4 -6.3°
Drops below altitude 10° 06:54:38 10° 187° (S) 1,770 3.6 -6.1°
Sets 06:58:36 0° 149° (SSE) 2,659 5.3 -5.4°
